VIR11B EGLL-KBOS

Flight info

Callsign VIR11B
Flight time 6h 48m
Altitude 36000
Route ULTIB T420 TNT UL28 PENIL M144 BAGSO DCT DOGAL/M085F370 NATC ELSIR/N0485F380 DCT TUSKY DCT EURRO OOSHN5
Aircraft A35K/H-SDE2E3GHIJ3J4J5LM1ORWXY/LB1D1

Departure

Time 2026-05-07 16:06
Airport London Heathrow Airport (EGLL)

Arrival

Time 2026-05-07 22:55
Airport Boston Logan International Airport (KBOS)
Time Latitude Longitude Altitude Speed Heading
2026-05-07 15:29 51.47018 -0.46536 92 ft 0 kts 55°
2026-05-07 15:50 51.47006 -0.46566 95 ft 4 kts 55°
2026-05-07 15:50 51.46992 -0.46598 91 ft 2 kts 55°
2026-05-07 15:51 51.46982 -0.46630 92 ft 4 kts 97°
2026-05-07 15:51 51.46993 -0.46663 91 ft 3 kts 145°
2026-05-07 15:51 51.47014 -0.46686 91 ft 4 kts 145°
2026-05-07 15:51 51.47024 -0.46697 90 ft 0 kts 145°
2026-05-07 15:54 51.47023 -0.46696 92 ft 1 kts 145°
2026-05-07 15:54 51.47013 -0.46684 96 ft 3 kts 144°
2026-05-07 15:54 51.46991 -0.46660 96 ft 5 kts 144°
2026-05-07 15:55 51.46960 -0.46625 96 ft 6 kts 145°
2026-05-07 15:55 51.46918 -0.46577 96 ft 10 kts 145°
2026-05-07 15:55 51.46838 -0.46491 96 ft 16 kts 146°
2026-05-07 15:55 51.46781 -0.46450 95 ft 5 kts 187°
2026-05-07 15:56 51.46758 -0.46500 95 ft 8 kts 248°
2026-05-07 15:56 51.46749 -0.46623 96 ft 14 kts 268°
2026-05-07 15:56 51.46746 -0.46796 95 ft 16 kts 269°
2026-05-07 15:56 51.46748 -0.46985 95 ft 18 kts 270°
2026-05-07 15:57 51.46747 -0.47189 96 ft 19 kts 268°
2026-05-07 15:57 51.46745 -0.47406 94 ft 20 kts 270°
2026-05-07 15:57 51.46744 -0.47637 94 ft 21 kts 270°
2026-05-07 15:57 51.46744 -0.47878 93 ft 22 kts 270°
2026-05-07 15:58 51.46743 -0.48035 92 ft 7 kts 270°
2026-05-07 15:58 51.46743 -0.48079 92 ft 0 kts 269°
2026-05-07 15:59 51.46743 -0.48081 92 ft 1 kts 269°
2026-05-07 15:59 51.46743 -0.48187 92 ft 18 kts 269°
2026-05-07 15:59 51.46742 -0.48398 93 ft 20 kts 270°
2026-05-07 16:00 51.46741 -0.48623 92 ft 20 kts 269°
2026-05-07 16:00 51.46697 -0.48737 97 ft 13 kts 191°
2026-05-07 16:00 51.46621 -0.48757 95 ft 0 kts 195°
2026-05-07 16:00 51.46613 -0.48760 95 ft 1 kts 196°
2026-05-07 16:02 51.46613 -0.48761 95 ft 0 kts 198°
2026-05-07 16:04 51.46612 -0.48761 95 ft 1 kts 198°
2026-05-07 16:05 51.46591 -0.48772 94 ft 9 kts 198°
2026-05-07 16:05 51.46495 -0.48743 96 ft 16 kts 132°
2026-05-07 16:05 51.46479 -0.48532 95 ft 32 kts 91°
2026-05-07 16:05 51.46480 -0.47810 94 ft 96 kts 89°
2026-05-07 16:06 51.46485 -0.46428 99 ft 150 kts 90°
2026-05-07 16:06 51.46494 -0.44553 394 ft 172 kts 90°
2026-05-07 16:06 51.46511 -0.42658 1148 ft 169 kts 90°
2026-05-07 16:06 51.46804 -0.40763 1513 ft 189 kts 54°
2026-05-07 16:07 51.47773 -0.39196 1775 ft 209 kts 41°
2026-05-07 16:07 51.48906 -0.37540 1996 ft 232 kts 44°
2026-05-07 16:07 51.50092 -0.35593 2280 ft 252 kts 47°
2026-05-07 16:07 51.51258 -0.33449 2903 ft 259 kts 54°
2026-05-07 16:08 51.52077 -0.30864 3571 ft 261 kts 70°
2026-05-07 16:08 51.52678 -0.28156 4283 ft 263 kts 71°
2026-05-07 16:08 51.53402 -0.25390 4996 ft 266 kts 59°
2026-05-07 16:08 51.54662 -0.23272 5613 ft 269 kts 32°
2026-05-07 16:09 51.56417 -0.22287 5942 ft 269 kts
2026-05-07 16:09 51.58280 -0.22528 5993 ft 271 kts 348°
2026-05-07 16:09 51.60138 -0.23143 6017 ft 273 kts 347°
2026-05-07 16:09 51.61954 -0.24020 6031 ft 272 kts 334°
2026-05-07 16:10 51.63612 -0.25498 6379 ft 272 kts 328°
2026-05-07 16:10 51.65232 -0.27087 6872 ft 274 kts 328°
2026-05-07 16:10 51.66876 -0.28687 7354 ft 276 kts 328°
2026-05-07 16:10 51.68535 -0.30294 7876 ft 279 kts 328°
2026-05-07 16:11 51.70206 -0.31913 8392 ft 282 kts 328°
2026-05-07 16:11 51.71877 -0.33530 8909 ft 285 kts 328°
2026-05-07 16:11 51.73608 -0.35205 9444 ft 288 kts 328°
2026-05-07 16:11 51.75315 -0.36856 9976 ft 291 kts 327°
2026-05-07 16:12 51.77079 -0.38564 10459 ft 298 kts 327°
2026-05-07 16:12 51.78901 -0.40328 10898 ft 308 kts 328°
2026-05-07 16:12 51.80788 -0.42159 11172 ft 325 kts 328°
2026-05-07 16:12 51.82775 -0.44080 11443 ft 341 kts 328°
2026-05-07 16:13 51.84855 -0.46097 11713 ft 355 kts 328°
2026-05-07 16:13 51.87017 -0.48198 11956 ft 369 kts 328°
2026-05-07 16:13 51.89253 -0.50373 12215 ft 382 kts 328°
2026-05-07 16:13 51.91564 -0.52625 12510 ft 392 kts 328°
2026-05-07 16:14 51.93884 -0.54886 12957 ft 397 kts 328°
2026-05-07 16:14 51.96295 -0.57238 13438 ft 401 kts 328°
2026-05-07 16:14 51.98690 -0.59578 13927 ft 404 kts 328°
2026-05-07 16:14 52.01112 -0.61946 14384 ft 407 kts 328°
2026-05-07 16:15 52.03511 -0.64296 14860 ft 409 kts 328°
2026-05-07 16:15 52.05948 -0.66687 15364 ft 410 kts 327°
2026-05-07 16:15 52.08399 -0.69095 15841 ft 412 kts 327°
2026-05-07 16:15 52.10870 -0.71525 16321 ft 415 kts 327°
2026-05-07 16:16 52.13348 -0.73965 16805 ft 417 kts 327°
2026-05-07 16:16 52.15835 -0.76411 17269 ft 419 kts 327°
2026-05-07 16:16 52.18334 -0.78877 17730 ft 421 kts 327°
2026-05-07 16:16 52.20849 -0.81366 18199 ft 423 kts 327°
2026-05-07 16:17 52.23343 -0.83839 18605 ft 425 kts 327°
2026-05-07 16:17 52.25881 -0.86356 18994 ft 428 kts 327°
2026-05-07 16:17 52.28431 -0.88883 19398 ft 430 kts 327°
2026-05-07 16:17 52.31001 -0.91440 19747 ft 433 kts 327°
2026-05-07 16:18 52.33581 -0.94012 20154 ft 435 kts 327°
2026-05-07 16:18 52.36173 -0.96600 20546 ft 437 kts 327°
2026-05-07 16:18 52.38784 -0.99208 20978 ft 439 kts 327°
2026-05-07 16:18 52.41403 -1.01827 21383 ft 442 kts 327°
2026-05-07 16:19 52.43998 -1.04425 21753 ft 444 kts 327°
2026-05-07 16:19 52.46644 -1.07079 22159 ft 446 kts 327°
2026-05-07 16:19 52.49299 -1.09743 22552 ft 449 kts 327°
2026-05-07 16:19 52.51970 -1.12422 22950 ft 451 kts 327°
2026-05-07 16:20 52.54654 -1.15125 23285 ft 455 kts 327°
2026-05-07 16:20 52.57364 -1.17856 23631 ft 457 kts 327°
2026-05-07 16:20 52.60085 -1.20599 23948 ft 460 kts 327°
2026-05-07 16:20 52.62829 -1.23373 24253 ft 463 kts 327°
2026-05-07 16:21 52.65581 -1.26162 24572 ft 465 kts 327°
2026-05-07 16:21 52.68345 -1.28967 24877 ft 468 kts 327°
2026-05-07 16:21 52.71129 -1.31794 25213 ft 471 kts 327°
2026-05-07 16:21 52.73883 -1.34592 25561 ft 473 kts 327°
2026-05-07 16:22 52.76698 -1.37463 25883 ft 476 kts 327°
2026-05-07 16:22 52.79534 -1.40363 26102 ft 482 kts 327°
2026-05-07 16:22 52.82389 -1.43284 26444 ft 484 kts 327°
2026-05-07 16:22 52.85254 -1.46219 26795 ft 486 kts 327°
2026-05-07 16:23 52.88150 -1.49189 27122 ft 489 kts 327°
2026-05-07 16:23 52.91050 -1.52167 27458 ft 492 kts 327°
2026-05-07 16:23 52.93968 -1.55170 27772 ft 495 kts 327°
2026-05-07 16:23 52.96899 -1.58190 28106 ft 497 kts 327°
2026-05-07 16:24 52.98847 -1.60200 28307 ft 499 kts 327°
2026-05-07 16:24 53.01807 -1.63260 28556 ft 503 kts 328°
2026-05-07 16:24 53.04793 -1.66351 28802 ft 507 kts 328°
2026-05-07 16:24 53.07789 -1.69453 29110 ft 509 kts 328°
2026-05-07 16:25 53.10801 -1.72580 29440 ft 510 kts 328°
2026-05-07 16:25 53.13815 -1.75719 29883 ft 509 kts 328°
2026-05-07 16:25 53.16818 -1.78855 30231 ft 509 kts 328°
2026-05-07 16:25 53.19764 -1.82146 30559 ft 508 kts 322°
2026-05-07 16:26 53.22427 -1.86011 30901 ft 507 kts 314°
2026-05-07 16:26 53.24713 -1.90473 31210 ft 506 kts 304°
2026-05-07 16:26 53.26578 -1.95458 31407 ft 507 kts 297°
2026-05-07 16:26 53.28228 -2.00652 31716 ft 506 kts 295°
2026-05-07 16:27 53.29805 -2.05904 32100 ft 504 kts 294°
2026-05-07 16:27 53.31342 -2.11155 32535 ft 501 kts 294°
2026-05-07 16:27 53.32865 -2.16399 32879 ft 501 kts 294°
2026-05-07 16:27 53.34387 -2.21637 33175 ft 501 kts 294°
2026-05-07 16:28 53.35768 -2.26989 33445 ft 499 kts 287°
2026-05-07 16:28 53.36886 -2.32397 33755 ft 498 kts 286°
2026-05-07 16:28 53.37972 -2.37912 34054 ft 497 kts 285°
2026-05-07 16:28 53.39028 -2.43426 34321 ft 496 kts 285°
2026-05-07 16:29 53.40067 -2.48925 34630 ft 494 kts 285°
2026-05-07 16:29 53.41097 -2.54413 34909 ft 493 kts 285°
2026-05-07 16:29 53.42122 -2.59882 35188 ft 491 kts 285°
2026-05-07 16:29 53.43145 -2.65344 35498 ft 488 kts 285°
2026-05-07 16:30 53.44161 -2.70773 35723 ft 488 kts 285°
2026-05-07 16:30 53.45172 -2.76191 35906 ft 488 kts 285°
2026-05-07 16:30 53.46189 -2.81645 35991 ft 490 kts 285°
2026-05-07 16:31 53.48229 -2.92639 35992 ft 496 kts 285°
2026-05-07 16:31 53.50272 -3.03697 35994 ft 495 kts 285°
2026-05-07 16:32 53.52288 -3.14678 35995 ft 494 kts 284°
2026-05-07 16:32 53.54299 -3.25702 35993 ft 493 kts 284°
2026-05-07 16:33 53.56299 -3.36736 35992 ft 493 kts 284°
2026-05-07 16:33 53.58231 -3.47448 35991 ft 493 kts 284°
2026-05-07 16:34 53.60209 -3.58465 35988 ft 493 kts 284°
2026-05-07 16:34 53.61665 -3.69596 35991 ft 487 kts 273°
2026-05-07 16:35 53.62263 -3.80939 35988 ft 486 kts 271°
2026-05-07 16:35 53.62714 -3.92312 35988 ft 486 kts 271°
2026-05-07 16:36 53.63147 -4.03670 35982 ft 486 kts 271°
2026-05-07 16:36 53.63584 -4.15037 35982 ft 486 kts 271°
2026-05-07 16:37 53.64012 -4.26374 35982 ft 484 kts 271°
2026-05-07 16:37 53.64433 -4.37705 35982 ft 484 kts 271°
2026-05-07 16:38 53.64844 -4.49024 35982 ft 484 kts 271°
2026-05-07 16:38 53.65238 -4.60272 35978 ft 484 kts 270°
2026-05-07 16:39 53.65621 -4.71600 35977 ft 483 kts 270°
2026-05-07 16:39 53.65993 -4.82838 35972 ft 478 kts 270°
2026-05-07 16:40 53.66362 -4.94046 35971 ft 478 kts 270°
2026-05-07 16:40 53.66717 -5.05242 35969 ft 478 kts 270°
2026-05-07 16:41 53.67059 -5.16365 35969 ft 478 kts 270°
2026-05-07 16:41 53.67389 -5.27554 35963 ft 476 kts 270°
2026-05-07 16:42 53.67702 -5.38711 35962 ft 475 kts 270°
2026-05-07 16:42 53.68004 -5.49860 35963 ft 475 kts 270°
2026-05-07 16:43 53.68591 -5.60910 35961 ft 477 kts 275°
2026-05-07 16:43 53.69503 -5.71992 35960 ft 477 kts 275°
2026-05-07 16:44 53.70385 -5.83101 35959 ft 477 kts 274°
2026-05-07 16:44 53.71193 -5.94213 35947 ft 476 kts 274°
2026-05-07 16:45 53.71964 -6.05329 35932 ft 476 kts 274°
2026-05-07 16:45 53.72716 -6.16367 35933 ft 476 kts 274°
2026-05-07 16:46 53.73466 -6.27489 35941 ft 476 kts 274°
2026-05-07 16:46 53.74206 -6.38586 35928 ft 474 kts 274°
2026-05-07 16:47 53.74932 -6.49645 35919 ft 473 kts 273°
2026-05-07 16:47 53.75648 -6.60701 35919 ft 473 kts 273°
2026-05-07 16:48 53.76354 -6.71755 35918 ft 473 kts 273°
2026-05-07 16:48 53.77045 -6.82748 35919 ft 472 kts 273°
2026-05-07 16:49 53.77728 -6.93782 35910 ft 471 kts 273°
2026-05-07 16:49 53.78402 -7.04827 35911 ft 471 kts 273°
2026-05-07 16:50 53.79065 -7.15853 35898 ft 471 kts 273°
2026-05-07 16:50 53.79712 -7.26805 35902 ft 470 kts 273°
2026-05-07 16:51 53.80353 -7.37827 35910 ft 469 kts 273°
2026-05-07 16:51 53.80983 -7.48820 35906 ft 469 kts 273°
2026-05-07 16:52 53.81603 -7.59820 35910 ft 469 kts 273°
2026-05-07 16:52 53.82211 -7.70806 35914 ft 469 kts 272°
2026-05-07 16:53 53.82809 -7.81793 35903 ft 469 kts 272°
2026-05-07 16:53 53.83394 -7.92725 35901 ft 468 kts 273°
2026-05-07 16:54 53.83972 -8.03696 35911 ft 468 kts 272°
2026-05-07 16:54 53.84540 -8.14688 35905 ft 468 kts 272°
2026-05-07 16:55 53.85098 -8.25677 35899 ft 468 kts 272°
2026-05-07 16:55 53.85642 -8.36599 35901 ft 468 kts 272°
2026-05-07 16:56 53.86180 -8.47579 35905 ft 468 kts 272°
2026-05-07 16:56 53.86967 -8.64073 35907 ft 468 kts 272°
2026-05-07 16:57 53.87480 -8.75072 35912 ft 468 kts 272°
2026-05-07 16:57 53.87982 -8.86063 35912 ft 468 kts 272°
2026-05-07 16:58 53.88475 -8.97070 35916 ft 468 kts 272°
2026-05-07 16:58 53.88954 -9.07987 35909 ft 467 kts 272°
2026-05-07 16:59 53.89425 -9.18965 35912 ft 467 kts 271°
2026-05-07 16:59 53.89888 -9.29969 35912 ft 467 kts 271°
2026-05-07 17:00 53.90340 -9.40955 35914 ft 467 kts 271°
2026-05-07 17:00 53.90781 -9.51942 35927 ft 466 kts 271°
2026-05-07 17:01 53.91210 -9.62908 35916 ft 466 kts 271°
2026-05-07 17:01 53.91631 -9.73890 35921 ft 466 kts 270°
2026-05-07 17:02 53.92038 -9.84787 35928 ft 466 kts 270°
2026-05-07 17:02 53.92438 -9.95759 35928 ft 466 kts 270°
2026-05-07 17:03 53.92829 -10.06734 35920 ft 465 kts 270°
2026-05-07 17:03 53.93209 -10.17716 35930 ft 466 kts 270°
2026-05-07 17:04 53.93579 -10.28694 35927 ft 465 kts 270°
2026-05-07 17:04 53.93937 -10.39610 35925 ft 465 kts 270°
2026-05-07 17:05 53.94287 -10.50583 35930 ft 465 kts 270°
2026-05-07 17:05 53.94626 -10.61539 35931 ft 465 kts 270°
2026-05-07 17:06 53.94957 -10.72537 35934 ft 465 kts 270°
2026-05-07 17:06 53.95276 -10.83509 35931 ft 465 kts 270°
2026-05-07 17:07 53.95587 -10.94494 35932 ft 465 kts 269°
2026-05-07 17:07 53.95886 -11.05471 35931 ft 465 kts 269°
2026-05-07 17:08 53.96174 -11.16382 35933 ft 465 kts 269°
2026-05-07 17:08 53.96454 -11.27353 35937 ft 465 kts 269°
2026-05-07 17:09 53.96724 -11.38331 35936 ft 465 kts 269°
2026-05-07 17:09 53.96984 -11.49304 35934 ft 465 kts 269°
2026-05-07 17:10 53.97233 -11.60278 35937 ft 465 kts 269°
2026-05-07 17:10 53.97472 -11.71234 35938 ft 463 kts 269°
2026-05-07 17:11 53.97663 -11.80332 35936 ft 463 kts 269°
2026-05-07 17:11 53.97883 -11.91248 35938 ft 462 kts 269°
2026-05-07 17:12 53.98094 -12.02186 35935 ft 462 kts 269°
2026-05-07 17:12 53.98294 -12.13121 35941 ft 462 kts 269°
2026-05-07 17:13 53.98484 -12.24041 35942 ft 461 kts 269°
2026-05-07 17:13 53.98665 -12.34943 35941 ft 461 kts 269°
2026-05-07 17:14 53.98835 -12.45837 35941 ft 461 kts 269°
2026-05-07 17:14 53.98995 -12.56721 35944 ft 461 kts 269°
2026-05-07 17:15 53.99145 -12.67552 35947 ft 461 kts 268°
2026-05-07 17:15 53.99285 -12.78442 35947 ft 460 kts 269°
2026-05-07 17:16 53.99416 -12.89314 35947 ft 460 kts 269°
2026-05-07 17:16 53.99536 -13.00183 35950 ft 460 kts 268°
2026-05-07 17:17 53.99647 -13.11050 35952 ft 460 kts 268°
2026-05-07 17:17 53.99748 -13.21919 35955 ft 460 kts 268°
2026-05-07 17:18 53.99839 -13.32789 35955 ft 460 kts 268°
2026-05-07 17:18 53.99921 -13.43663 35958 ft 459 kts 268°
2026-05-07 17:19 53.99992 -13.54531 35956 ft 460 kts 268°
2026-05-07 17:19 54.00054 -13.65339 35964 ft 460 kts 268°
2026-05-07 17:20 54.00106 -13.76227 35957 ft 460 kts 268°
2026-05-07 17:20 54.00148 -13.87101 35967 ft 460 kts 268°
2026-05-07 17:21 54.00181 -13.97985 35969 ft 460 kts 268°
2026-05-07 17:21 54.00204 -14.08881 35969 ft 460 kts 268°
2026-05-07 17:22 54.00216 -14.19701 35971 ft 460 kts 268°
2026-05-07 17:22 54.00219 -14.30640 35977 ft 460 kts 268°
2026-05-07 17:23 54.00212 -14.41465 35966 ft 460 kts 268°
2026-05-07 17:23 54.00196 -14.52351 35968 ft 460 kts 268°
2026-05-07 17:24 54.00170 -14.63228 35973 ft 460 kts 268°
2026-05-07 17:24 54.00134 -14.74116 35973 ft 460 kts 268°
2026-05-07 17:25 54.00088 -14.84919 35980 ft 460 kts 268°
2026-05-07 17:25 54.00032 -14.95808 36122 ft 460 kts 268°
2026-05-07 17:26 54.00001 -15.01223 36413 ft 457 kts 268°
2026-05-07 17:26 54.00028 -15.06635 36598 ft 457 kts 270°
2026-05-07 17:26 54.00134 -15.12042 36756 ft 458 kts 271°
2026-05-07 17:26 54.00271 -15.17454 36900 ft 459 kts 271°
2026-05-07 17:27 54.00540 -15.28362 36990 ft 464 kts 271°
2026-05-07 17:27 54.00762 -15.39294 36996 ft 466 kts 270°
2026-05-07 17:28 54.00952 -15.50312 37004 ft 466 kts 270°
2026-05-07 17:28 54.01127 -15.61359 36998 ft 468 kts 270°
2026-05-07 17:29 54.01293 -15.72441 36999 ft 468 kts 270°
2026-05-07 17:29 54.01451 -15.83509 37007 ft 468 kts 270°
2026-05-07 17:30 54.01599 -15.94573 37010 ft 468 kts 270°
2026-05-07 17:30 54.01736 -16.05588 37009 ft 469 kts 270°
2026-05-07 17:31 54.01864 -16.16687 37007 ft 469 kts 270°
2026-05-07 17:31 54.01982 -16.27749 37007 ft 469 kts 270°
2026-05-07 17:32 54.02089 -16.38841 37007 ft 469 kts 270°
2026-05-07 17:32 54.02186 -16.49939 37015 ft 469 kts 270°
2026-05-07 17:33 54.02273 -16.61043 37015 ft 469 kts 270°
2026-05-07 17:33 54.02350 -16.72137 37020 ft 469 kts 270°
2026-05-07 17:34 54.02416 -16.83143 37021 ft 469 kts 270°
2026-05-07 17:34 54.02473 -16.94245 37020 ft 469 kts 269°
2026-05-07 17:35 54.02519 -17.05343 37020 ft 469 kts 269°
2026-05-07 17:35 54.02554 -17.16460 37026 ft 469 kts 270°
2026-05-07 17:36 54.02580 -17.27565 37031 ft 470 kts 270°
2026-05-07 17:36 54.02596 -17.38686 37029 ft 470 kts 269°
2026-05-07 17:37 54.02602 -17.49813 37032 ft 470 kts 269°
2026-05-07 17:37 54.02597 -17.60940 37035 ft 470 kts 269°
2026-05-07 17:38 54.02581 -17.72070 37036 ft 470 kts 269°
2026-05-07 17:38 54.02556 -17.83196 37040 ft 470 kts 269°
2026-05-07 17:39 54.02520 -17.94324 37044 ft 470 kts 269°
2026-05-07 17:39 54.02474 -18.05390 37044 ft 470 kts 269°
2026-05-07 17:40 54.02418 -18.16526 37047 ft 470 kts 269°
2026-05-07 17:40 54.02351 -18.27658 37052 ft 471 kts 269°
2026-05-07 17:41 54.02274 -18.38790 37049 ft 471 kts 269°
2026-05-07 17:41 54.02187 -18.49937 37057 ft 471 kts 269°
2026-05-07 17:42 54.02090 -18.61068 37055 ft 471 kts 269°
2026-05-07 17:42 54.01982 -18.72201 37062 ft 471 kts 269°
2026-05-07 17:43 54.01863 -18.83341 37058 ft 471 kts 269°
2026-05-07 17:43 54.01735 -18.94472 37064 ft 471 kts 269°
2026-05-07 17:44 54.01597 -19.05539 37065 ft 471 kts 269°
2026-05-07 17:44 54.01448 -19.16694 37071 ft 472 kts 269°
2026-05-07 17:45 54.01289 -19.27849 37072 ft 472 kts 269°
2026-05-07 17:45 54.01120 -19.38998 37076 ft 472 kts 269°
2026-05-07 17:46 54.00939 -19.50172 37073 ft 472 kts 269°
2026-05-07 17:46 54.00748 -19.61337 37082 ft 472 kts 269°
2026-05-07 17:47 54.00548 -19.72440 37079 ft 472 kts 269°
2026-05-07 17:47 54.00336 -19.83666 37082 ft 472 kts 269°
2026-05-07 17:48 54.00115 -19.94754 37086 ft 472 kts 269°
2026-05-07 17:48 53.99824 -20.05937 37092 ft 473 kts 266°
2026-05-07 17:49 53.99159 -20.17058 37091 ft 473 kts 264°
2026-05-07 17:49 53.98415 -20.28181 37094 ft 473 kts 265°
2026-05-07 17:50 53.97715 -20.39309 37089 ft 473 kts 265°
2026-05-07 17:50 53.97043 -20.50360 37100 ft 474 kts 265°
2026-05-07 17:51 53.96365 -20.61499 37102 ft 474 kts 265°
2026-05-07 17:51 53.95674 -20.72642 37102 ft 474 kts 265°
2026-05-07 17:52 53.94971 -20.83779 37105 ft 474 kts 265°
2026-05-07 17:52 53.94256 -20.94908 37112 ft 474 kts 265°
2026-05-07 17:53 53.93532 -21.06043 37110 ft 475 kts 265°
2026-05-07 17:53 53.92800 -21.17134 37110 ft 475 kts 265°
2026-05-07 17:54 53.92053 -21.28289 37116 ft 475 kts 265°
2026-05-07 17:54 53.91424 -21.37556 37116 ft 475 kts 265°
2026-05-07 17:55 53.90659 -21.48691 37104 ft 475 kts 265°
2026-05-07 17:55 53.89882 -21.59840 37118 ft 476 kts 265°
2026-05-07 17:56 53.89096 -21.70980 37122 ft 476 kts 265°
2026-05-07 17:56 53.88298 -21.82123 37121 ft 476 kts 265°
2026-05-07 17:57 53.87490 -21.93271 37129 ft 476 kts 265°
2026-05-07 17:57 53.86671 -22.04411 37126 ft 476 kts 265°
2026-05-07 17:58 53.85843 -22.15535 37129 ft 476 kts 265°
2026-05-07 17:58 53.85010 -22.26590 37129 ft 476 kts 264°
2026-05-07 17:59 53.84160 -22.37720 37131 ft 476 kts 264°
2026-05-07 17:59 53.83302 -22.48828 37132 ft 476 kts 264°
2026-05-07 18:00 53.82431 -22.59940 37140 ft 476 kts 265°
2026-05-07 18:00 53.81551 -22.71059 37140 ft 476 kts 264°
2026-05-07 18:01 53.80666 -22.82097 37143 ft 476 kts 264°
2026-05-07 18:01 53.79764 -22.93218 37143 ft 476 kts 264°
2026-05-07 18:02 53.78391 -23.09891 37142 ft 477 kts 264°
2026-05-07 18:03 53.77463 -23.21008 37148 ft 477 kts 264°
2026-05-07 18:03 53.76525 -23.32112 37149 ft 477 kts 264°
2026-05-07 18:04 53.75582 -23.43144 37151 ft 477 kts 264°
2026-05-07 18:04 53.74622 -23.54253 37152 ft 477 kts 264°
2026-05-07 18:05 53.73651 -23.65364 37165 ft 477 kts 264°
2026-05-07 18:05 53.72672 -23.76448 37162 ft 477 kts 264°
2026-05-07 18:06 53.71682 -23.87537 37161 ft 477 kts 264°
2026-05-07 18:06 53.70682 -23.98620 37163 ft 477 kts 264°
2026-05-07 18:07 53.69671 -24.09700 37167 ft 478 kts 264°
2026-05-07 18:07 53.68649 -24.20780 37163 ft 478 kts 264°
2026-05-07 18:08 53.67625 -24.31772 37167 ft 478 kts 264°
2026-05-07 18:08 53.66583 -24.42849 37172 ft 478 kts 264°
2026-05-07 18:09 53.65529 -24.53932 37172 ft 478 kts 264°
2026-05-07 18:09 53.64466 -24.64994 37162 ft 478 kts 264°
2026-05-07 18:10 53.63393 -24.76048 37177 ft 478 kts 264°
2026-05-07 18:10 53.62318 -24.87020 37178 ft 478 kts 264°
2026-05-07 18:11 53.61225 -24.98069 37178 ft 478 kts 264°
2026-05-07 18:11 53.60119 -25.09131 37181 ft 478 kts 264°
2026-05-07 18:12 53.59005 -25.20167 37178 ft 478 kts 264°
2026-05-07 18:12 53.57879 -25.31213 37184 ft 478 kts 264°
2026-05-07 18:13 53.56753 -25.42162 37190 ft 478 kts 264°
2026-05-07 18:13 53.55608 -25.53189 37192 ft 478 kts 264°
2026-05-07 18:14 53.54454 -25.64208 37192 ft 478 kts 264°
2026-05-07 18:14 53.53287 -25.75231 37193 ft 478 kts 264°
2026-05-07 18:15 53.52118 -25.86182 37195 ft 478 kts 264°
2026-05-07 18:15 53.50932 -25.97189 37197 ft 478 kts 264°
2026-05-07 18:16 53.49738 -26.08170 37196 ft 478 kts 264°
2026-05-07 18:16 53.48532 -26.19166 37169 ft 478 kts 264°
2026-05-07 18:17 53.47316 -26.30144 37211 ft 478 kts 264°
2026-05-07 18:17 53.46099 -26.41048 37199 ft 478 kts 264°
2026-05-07 18:18 53.44866 -26.51997 37207 ft 478 kts 264°
2026-05-07 18:18 53.43620 -26.62963 37213 ft 478 kts 264°
2026-05-07 18:19 53.42364 -26.73916 37198 ft 478 kts 264°
2026-05-07 18:19 53.41101 -26.84837 37212 ft 477 kts 264°
2026-05-07 18:20 53.39829 -26.95754 37213 ft 477 kts 264°
2026-05-07 18:20 53.38550 -27.06645 37215 ft 477 kts 264°
2026-05-07 18:21 53.37257 -27.17550 37216 ft 477 kts 264°
2026-05-07 18:21 53.35963 -27.28383 37222 ft 477 kts 264°
2026-05-07 18:22 53.34650 -27.39278 37224 ft 477 kts 264°
2026-05-07 18:22 53.33329 -27.50158 37225 ft 477 kts 264°
2026-05-07 18:23 53.31997 -27.61037 37228 ft 477 kts 264°
2026-05-07 18:23 53.30655 -27.71904 37227 ft 477 kts 264°
2026-05-07 18:24 53.29302 -27.82761 37231 ft 475 kts 264°
2026-05-07 18:24 53.27955 -27.93501 37232 ft 475 kts 264°
2026-05-07 18:25 53.26591 -28.04298 37229 ft 475 kts 264°
2026-05-07 18:25 53.25216 -28.15100 37236 ft 475 kts 264°
2026-05-07 18:26 53.23830 -28.25897 37230 ft 475 kts 265°
2026-05-07 18:26 53.22436 -28.36670 37247 ft 474 kts 265°
2026-05-07 18:27 53.21037 -28.47420 37248 ft 474 kts 265°
2026-05-07 18:27 53.19638 -28.58081 37249 ft 474 kts 264°
2026-05-07 18:28 53.18218 -28.68814 37245 ft 474 kts 264°
2026-05-07 18:28 53.16787 -28.79546 37247 ft 474 kts 265°
2026-05-07 18:29 53.15345 -28.90271 37256 ft 474 kts 265°
2026-05-07 18:29 53.13895 -29.00990 37257 ft 474 kts 265°
2026-05-07 18:30 53.12435 -29.11703 37258 ft 474 kts 265°
2026-05-07 18:30 53.10975 -29.22342 37265 ft 474 kts 265°
2026-05-07 18:31 53.09497 -29.33033 37262 ft 473 kts 265°
2026-05-07 18:31 53.08014 -29.43685 37275 ft 472 kts 265°
2026-05-07 18:32 53.06523 -29.54323 37270 ft 472 kts 265°
2026-05-07 18:32 53.05021 -29.64969 37263 ft 472 kts 265°
2026-05-07 18:33 53.03509 -29.75600 37232 ft 472 kts 265°
2026-05-07 18:33 53.02004 -29.86080 37286 ft 466 kts 265°
2026-05-07 18:34 53.00500 -29.96506 37273 ft 464 kts 265°
2026-05-07 18:34 52.99099 -30.06939 37269 ft 460 kts 268°
2026-05-07 18:35 52.98061 -30.17390 37289 ft 459 kts 269°
2026-05-07 18:35 52.97049 -30.27849 37253 ft 459 kts 269°
2026-05-07 18:36 52.95971 -30.38283 37285 ft 459 kts 268°
2026-05-07 18:36 52.94852 -30.48708 37287 ft 459 kts 268°
2026-05-07 18:37 52.93719 -30.59117 37289 ft 459 kts 268°
2026-05-07 18:37 52.92577 -30.69529 37289 ft 459 kts 268°
2026-05-07 18:38 52.91436 -30.79869 37270 ft 459 kts 268°
2026-05-07 18:38 52.90275 -30.90317 37293 ft 461 kts 268°
2026-05-07 18:39 52.89100 -31.00795 37289 ft 462 kts 268°
2026-05-07 18:39 52.87922 -31.11188 37308 ft 462 kts 268°
2026-05-07 18:40 52.86729 -31.21641 37307 ft 462 kts 268°
2026-05-07 18:40 52.85527 -31.32093 37289 ft 462 kts 268°
2026-05-07 18:41 52.84519 -31.40809 37307 ft 465 kts 267°
2026-05-07 18:41 52.83293 -31.51308 37301 ft 465 kts 267°
2026-05-07 18:42 52.82056 -31.61808 37301 ft 465 kts 267°
2026-05-07 18:42 52.80809 -31.72312 37292 ft 465 kts 267°
2026-05-07 18:43 52.79553 -31.82808 37273 ft 465 kts 267°
2026-05-07 18:43 52.78298 -31.93205 37306 ft 463 kts 267°
2026-05-07 18:44 52.77032 -32.03631 37309 ft 463 kts 267°
2026-05-07 18:44 52.75757 -32.14056 37305 ft 463 kts 267°
2026-05-07 18:45 52.74471 -32.24475 37309 ft 463 kts 267°
2026-05-07 18:45 52.73175 -32.34897 37312 ft 463 kts 267°
2026-05-07 18:46 52.71871 -32.45307 37313 ft 463 kts 267°
2026-05-07 18:46 52.70555 -32.55725 37315 ft 463 kts 267°
2026-05-07 18:47 52.69240 -32.66068 37313 ft 464 kts 267°
2026-05-07 18:47 52.67907 -32.76464 37314 ft 464 kts 267°
2026-05-07 18:48 52.66565 -32.86857 37309 ft 462 kts 267°
2026-05-07 18:48 52.65221 -32.97165 37317 ft 459 kts 267°
2026-05-07 18:49 52.63876 -33.07435 37315 ft 458 kts 267°
2026-05-07 18:49 52.62528 -33.17653 37317 ft 456 kts 267°
2026-05-07 18:50 52.61173 -33.27863 37317 ft 456 kts 266°
2026-05-07 18:50 52.59818 -33.37997 37314 ft 455 kts 266°
2026-05-07 18:51 52.58448 -33.48150 37318 ft 454 kts 266°
2026-05-07 18:51 52.57075 -33.58272 37322 ft 454 kts 266°
2026-05-07 18:52 52.55693 -33.68398 37322 ft 454 kts 266°
2026-05-07 18:52 52.54307 -33.78473 37326 ft 454 kts 266°
2026-05-07 18:53 52.52906 -33.88588 37312 ft 453 kts 266°
2026-05-07 18:53 52.51500 -33.98660 37318 ft 452 kts 266°
2026-05-07 18:54 52.50083 -34.08752 37317 ft 452 kts 266°
2026-05-07 18:54 52.48663 -34.18804 37315 ft 452 kts 266°
2026-05-07 18:55 52.47240 -34.28807 37323 ft 452 kts 266°
2026-05-07 18:55 52.45801 -34.38856 37324 ft 453 kts 265°
2026-05-07 18:56 52.44354 -34.48895 37326 ft 453 kts 265°
2026-05-07 18:56 52.42898 -34.58931 37308 ft 453 kts 265°
2026-05-07 18:57 52.41434 -34.68943 37322 ft 451 kts 265°
2026-05-07 18:57 52.39966 -34.78927 37322 ft 450 kts 265°
2026-05-07 18:58 52.38492 -34.88902 37318 ft 451 kts 265°
2026-05-07 18:58 52.37018 -34.98803 37322 ft 450 kts 265°
2026-05-07 18:59 52.35529 -35.08750 37319 ft 450 kts 265°
2026-05-07 18:59 52.34028 -35.18705 37319 ft 450 kts 264°
2026-05-07 19:00 52.32520 -35.28645 37323 ft 450 kts 264°
2026-05-07 19:00 52.31003 -35.38589 37319 ft 451 kts 264°
2026-05-07 19:01 52.29477 -35.48535 37321 ft 452 kts 264°
2026-05-07 19:01 52.27938 -35.58487 37326 ft 452 kts 264°
2026-05-07 19:02 52.26401 -35.68374 37322 ft 452 kts 264°
2026-05-07 19:02 52.24846 -35.78310 37323 ft 452 kts 264°
2026-05-07 19:03 52.23283 -35.88251 37311 ft 453 kts 263°
2026-05-07 19:03 52.21708 -35.98198 37314 ft 453 kts 263°
2026-05-07 19:04 52.20122 -36.08155 37320 ft 453 kts 263°
2026-05-07 19:04 52.18529 -36.18089 37318 ft 452 kts 263°
2026-05-07 19:05 52.16931 -36.27996 37319 ft 451 kts 263°
2026-05-07 19:05 52.15328 -36.37889 37321 ft 452 kts 262°
2026-05-07 19:06 52.13713 -36.47802 37320 ft 453 kts 262°
2026-05-07 19:06 52.11270 -36.62673 37319 ft 453 kts 262°
2026-05-07 19:07 52.09642 -36.72507 37322 ft 453 kts 262°
2026-05-07 19:07 52.07995 -36.82402 37293 ft 453 kts 262°
2026-05-07 19:08 52.06339 -36.92299 37322 ft 454 kts 262°
2026-05-07 19:08 52.04672 -37.02197 37321 ft 454 kts 262°
2026-05-07 19:09 52.02993 -37.12111 37323 ft 454 kts 261°
2026-05-07 19:09 52.01308 -37.22006 37324 ft 454 kts 261°
2026-05-07 19:10 51.99616 -37.31884 37321 ft 454 kts 261°
2026-05-07 19:10 51.97914 -37.41769 37319 ft 454 kts 261°
2026-05-07 19:11 51.96216 -37.51570 37316 ft 454 kts 261°
2026-05-07 19:11 51.94494 -37.61460 37316 ft 455 kts 261°
2026-05-07 19:12 51.92767 -37.71319 37317 ft 453 kts 261°
2026-05-07 19:12 51.91039 -37.81131 37309 ft 452 kts 261°
2026-05-07 19:13 51.89305 -37.90931 37316 ft 452 kts 260°
2026-05-07 19:13 51.87560 -38.00733 37314 ft 453 kts 260°
2026-05-07 19:14 51.85810 -38.10509 37312 ft 453 kts 260°
2026-05-07 19:14 51.84059 -38.20240 37311 ft 453 kts 260°
2026-05-07 19:15 51.82292 -38.30009 37316 ft 453 kts 260°
2026-05-07 19:15 51.80512 -38.39795 37301 ft 454 kts 259°
2026-05-07 19:16 51.78724 -38.49573 37309 ft 454 kts 259°
2026-05-07 19:16 51.76927 -38.59343 37307 ft 454 kts 259°
2026-05-07 19:17 51.75123 -38.69102 37303 ft 454 kts 259°
2026-05-07 19:17 51.73311 -38.78862 37302 ft 455 kts 259°
2026-05-07 19:18 51.71485 -38.88641 37302 ft 456 kts 259°
2026-05-07 19:18 51.69644 -38.98439 37301 ft 456 kts 259°
2026-05-07 19:19 51.67799 -39.08212 37303 ft 456 kts 259°
2026-05-07 19:19 51.65954 -39.17935 37298 ft 455 kts 258°
2026-05-07 19:20 51.64094 -39.27692 37301 ft 456 kts 258°
2026-05-07 19:20 51.62223 -39.37454 37295 ft 456 kts 258°
2026-05-07 19:21 51.60338 -39.47236 37298 ft 457 kts 258°
2026-05-07 19:21 51.58448 -39.56988 37295 ft 457 kts 258°
2026-05-07 19:22 51.56563 -39.66675 37293 ft 457 kts 258°
2026-05-07 19:22 51.54654 -39.76439 37290 ft 458 kts 257°
2026-05-07 19:23 51.52731 -39.86218 37286 ft 459 kts 257°
2026-05-07 19:23 51.50796 -39.96007 37289 ft 459 kts 257°
2026-05-07 19:24 51.49586 -40.04245 37287 ft 454 kts 264°
2026-05-07 19:24 51.48491 -40.14229 37288 ft 454 kts 265°
2026-05-07 19:25 51.47286 -40.25865 37287 ft 456 kts 264°
2026-05-07 19:25 51.46404 -40.34292 37281 ft 457 kts 264°
2026-05-07 19:26 51.45334 -40.44340 37281 ft 457 kts 264°
2026-05-07 19:26 51.44257 -40.54326 37279 ft 457 kts 264°
2026-05-07 19:27 51.43164 -40.64367 37276 ft 457 kts 264°
2026-05-07 19:27 51.42064 -40.74406 37269 ft 458 kts 263°
2026-05-07 19:28 51.40952 -40.84476 37276 ft 460 kts 263°
2026-05-07 19:28 51.39826 -40.94571 37276 ft 460 kts 263°
2026-05-07 19:29 51.38691 -41.04672 37274 ft 460 kts 263°
2026-05-07 19:29 51.37556 -41.14694 37279 ft 460 kts 263°
2026-05-07 19:30 51.36406 -41.24766 37273 ft 460 kts 263°
2026-05-07 19:30 51.35244 -41.34861 37271 ft 461 kts 263°
2026-05-07 19:31 51.34076 -41.44938 37272 ft 460 kts 262°
2026-05-07 19:31 51.32897 -41.55010 37274 ft 460 kts 262°
2026-05-07 19:32 51.31713 -41.65053 37274 ft 460 kts 262°
2026-05-07 19:32 51.30521 -41.75092 37270 ft 460 kts 262°
2026-05-07 19:33 51.29320 -41.85136 37263 ft 460 kts 262°
2026-05-07 19:33 51.28107 -41.95188 37263 ft 461 kts 262°
2026-05-07 19:34 51.26887 -42.05232 37266 ft 461 kts 261°
2026-05-07 19:34 51.25665 -42.15206 37268 ft 461 kts 261°
2026-05-07 19:35 51.24425 -42.25257 37266 ft 461 kts 261°
2026-05-07 19:35 51.23179 -42.35286 37267 ft 461 kts 261°
2026-05-07 19:36 51.21926 -42.45301 37266 ft 459 kts 261°
2026-05-07 19:36 51.20665 -42.55295 37263 ft 458 kts 261°
2026-05-07 19:37 51.19405 -42.65209 37263 ft 458 kts 261°
2026-05-07 19:37 51.18131 -42.75171 37261 ft 458 kts 261°
2026-05-07 19:38 51.16848 -42.85121 37258 ft 459 kts 260°
2026-05-07 19:38 51.15563 -42.95028 37260 ft 459 kts 260°
2026-05-07 19:39 51.14261 -43.04990 37257 ft 459 kts 260°
2026-05-07 19:39 51.12950 -43.14945 37257 ft 459 kts 260°
2026-05-07 19:40 51.11630 -43.24906 37257 ft 459 kts 260°
2026-05-07 19:40 51.10304 -43.34842 37254 ft 460 kts 259°
2026-05-07 19:41 51.08968 -43.44787 37251 ft 459 kts 259°
2026-05-07 19:41 51.07625 -43.54701 37251 ft 458 kts 259°
2026-05-07 19:42 51.06285 -43.64537 37251 ft 458 kts 259°
2026-05-07 19:42 51.04927 -43.74439 37251 ft 458 kts 259°
2026-05-07 19:43 51.03560 -43.84331 37242 ft 458 kts 259°
2026-05-07 19:43 51.02186 -43.94220 37247 ft 458 kts 259°
2026-05-07 19:44 51.00802 -44.04104 37250 ft 458 kts 259°
2026-05-07 19:44 50.99409 -44.13995 37250 ft 458 kts 259°
2026-05-07 19:45 50.98006 -44.23888 37247 ft 458 kts 258°
2026-05-07 19:45 50.96597 -44.33761 37250 ft 458 kts 258°
2026-05-07 19:46 50.95184 -44.43590 37248 ft 457 kts 258°
2026-05-07 19:46 50.93774 -44.53344 37244 ft 456 kts 258°
2026-05-07 19:47 50.92346 -44.63154 37245 ft 456 kts 258°
2026-05-07 19:47 50.90910 -44.72962 37244 ft 456 kts 258°
2026-05-07 19:48 50.89467 -44.82755 37246 ft 456 kts 258°
2026-05-07 19:48 50.88014 -44.92554 37238 ft 457 kts 258°
2026-05-07 19:49 50.86563 -45.02275 37241 ft 457 kts 258°
2026-05-07 19:49 50.85093 -45.12065 37240 ft 457 kts 257°
2026-05-07 19:50 50.83616 -45.21842 37250 ft 457 kts 257°
2026-05-07 19:50 50.82131 -45.31612 37243 ft 456 kts 257°
2026-05-07 19:51 50.80642 -45.41348 37245 ft 453 kts 257°
2026-05-07 19:51 50.79162 -45.50963 37239 ft 453 kts 257°
2026-05-07 19:52 50.77665 -45.60631 37243 ft 453 kts 257°
2026-05-07 19:52 50.76157 -45.70315 37239 ft 453 kts 256°
2026-05-07 19:53 50.74644 -45.79975 37237 ft 453 kts 256°
2026-05-07 19:53 50.73123 -45.89629 37234 ft 453 kts 256°
2026-05-07 19:54 50.71592 -45.99285 37236 ft 452 kts 256°
2026-05-07 19:54 50.70067 -46.08847 37244 ft 452 kts 256°
2026-05-07 19:55 50.68523 -46.18480 37231 ft 452 kts 256°
2026-05-07 19:55 50.66972 -46.28098 37239 ft 451 kts 255°
2026-05-07 19:56 50.65421 -46.37659 37230 ft 449 kts 255°
2026-05-07 19:56 50.63865 -46.47194 37235 ft 449 kts 255°
2026-05-07 19:57 50.62303 -46.56712 37238 ft 449 kts 255°
2026-05-07 19:57 50.60735 -46.66218 37233 ft 449 kts 255°
2026-05-07 19:58 50.59157 -46.75726 37227 ft 449 kts 255°
2026-05-07 19:58 50.57572 -46.85224 37227 ft 449 kts 255°
2026-05-07 19:59 50.55992 -46.94646 37217 ft 448 kts 254°
2026-05-07 19:59 50.54394 -47.04121 37225 ft 448 kts 254°
2026-05-07 20:00 50.52788 -47.13592 37220 ft 448 kts 254°
2026-05-07 20:00 50.51176 -47.23040 37222 ft 447 kts 253°
2026-05-07 20:01 50.49558 -47.32474 37223 ft 447 kts 253°
2026-05-07 20:01 50.47934 -47.41891 37219 ft 447 kts 253°
2026-05-07 20:02 50.46300 -47.51319 37221 ft 447 kts 253°
2026-05-07 20:02 50.44674 -47.60653 37215 ft 446 kts 253°
2026-05-07 20:03 50.43028 -47.70051 37215 ft 446 kts 253°
2026-05-07 20:03 50.41375 -47.79439 37215 ft 446 kts 253°
2026-05-07 20:04 50.39714 -47.88822 37209 ft 446 kts 252°
2026-05-07 20:04 50.38047 -47.98192 37208 ft 447 kts 252°
2026-05-07 20:05 50.36369 -48.07572 37210 ft 447 kts 252°
2026-05-07 20:05 50.34685 -48.16931 37208 ft 444 kts 252°
2026-05-07 20:06 50.33016 -48.26166 37203 ft 443 kts 251°
2026-05-07 20:06 50.31331 -48.35443 37196 ft 443 kts 251°
2026-05-07 20:07 50.29638 -48.44718 37194 ft 443 kts 251°
2026-05-07 20:07 50.27939 -48.53977 37194 ft 443 kts 251°
2026-05-07 20:08 50.26231 -48.63235 37194 ft 443 kts 251°
2026-05-07 20:08 50.24515 -48.72492 37180 ft 443 kts 251°
2026-05-07 20:09 50.23084 -48.80181 37182 ft 443 kts 251°
2026-05-07 20:10 50.20203 -48.95557 37182 ft 444 kts 251°
2026-05-07 20:10 50.18750 -49.03260 37193 ft 444 kts 250°
2026-05-07 20:11 50.17007 -49.12466 37162 ft 441 kts 250°
2026-05-07 20:11 50.15262 -49.21637 37178 ft 441 kts 250°
2026-05-07 20:12 50.13509 -49.30799 37174 ft 441 kts 250°
2026-05-07 20:12 50.11749 -49.39961 37154 ft 441 kts 250°
2026-05-07 20:13 50.09978 -49.49130 37151 ft 441 kts 250°
2026-05-07 20:13 50.08202 -49.58286 37168 ft 441 kts 250°
2026-05-07 20:14 50.06418 -49.67436 37151 ft 441 kts 250°
2026-05-07 20:14 50.04630 -49.76567 37138 ft 441 kts 250°
2026-05-07 20:15 50.02832 -49.85704 37140 ft 442 kts 250°
2026-05-07 20:15 50.01023 -49.94849 37155 ft 442 kts 249°
2026-05-07 20:16 49.99181 -50.03959 37138 ft 441 kts 248°
2026-05-07 20:16 49.97054 -50.12831 37128 ft 440 kts 246°
2026-05-07 20:17 49.94828 -50.21711 37137 ft 440 kts 246°
2026-05-07 20:17 49.92639 -50.30595 37127 ft 440 kts 246°
2026-05-07 20:18 49.90474 -50.39491 37125 ft 441 kts 246°
2026-05-07 20:18 49.88326 -50.48321 37124 ft 440 kts 246°
2026-05-07 20:19 49.86154 -50.57205 37118 ft 440 kts 246°
2026-05-07 20:19 49.83974 -50.66082 37118 ft 440 kts 246°
2026-05-07 20:20 49.81786 -50.74952 37119 ft 440 kts 246°
2026-05-07 20:20 49.79594 -50.83803 37116 ft 440 kts 246°
2026-05-07 20:21 49.77396 -50.92641 37105 ft 438 kts 246°
2026-05-07 20:21 49.75205 -51.01423 37103 ft 436 kts 245°
2026-05-07 20:22 49.73026 -51.10115 37102 ft 436 kts 245°
2026-05-07 20:22 49.70824 -51.18864 37099 ft 436 kts 245°
2026-05-07 20:23 49.68620 -51.27592 37092 ft 436 kts 245°
2026-05-07 20:23 49.66406 -51.36323 37091 ft 436 kts 245°
2026-05-07 20:23 49.65302 -51.40667 37339 ft 434 kts 245°
2026-05-07 20:24 49.64202 -51.44989 37730 ft 430 kts 245°
2026-05-07 20:24 49.63111 -51.49269 38023 ft 428 kts 245°
2026-05-07 20:24 49.62012 -51.53562 38078 ft 431 kts 245°
2026-05-07 20:25 49.59795 -51.62195 38075 ft 433 kts 245°
2026-05-07 20:25 49.57574 -51.70820 38067 ft 433 kts 245°
2026-05-07 20:26 49.55341 -51.79463 38070 ft 434 kts 245°
2026-05-07 20:26 49.53118 -51.88037 38099 ft 434 kts 245°
2026-05-07 20:27 49.50873 -51.96656 38066 ft 433 kts 246°
2026-05-07 20:27 49.48585 -52.05212 38064 ft 432 kts 244°
2026-05-07 20:28 49.46085 -52.13613 38045 ft 432 kts 243°
2026-05-07 20:28 49.43549 -52.21988 38048 ft 432 kts 243°
2026-05-07 20:29 49.41038 -52.30378 38042 ft 432 kts 243°
2026-05-07 20:29 49.38537 -52.38782 38042 ft 432 kts 243°
2026-05-07 20:30 49.36037 -52.47172 38038 ft 433 kts 244°
2026-05-07 20:30 49.33521 -52.55585 38031 ft 434 kts 244°
2026-05-07 20:31 49.30999 -52.63983 38022 ft 434 kts 244°
2026-05-07 20:31 49.28484 -52.72325 38020 ft 434 kts 244°
2026-05-07 20:32 49.25948 -52.80713 38015 ft 434 kts 244°
2026-05-07 20:32 49.23404 -52.89095 38015 ft 435 kts 244°
2026-05-07 20:33 49.20848 -52.97487 37998 ft 435 kts 243°
2026-05-07 20:33 49.18289 -53.05867 37999 ft 435 kts 243°
2026-05-07 20:34 49.15720 -53.14247 37990 ft 435 kts 243°
2026-05-07 20:34 49.13164 -53.22557 37990 ft 435 kts 243°
2026-05-07 20:35 49.10580 -53.30933 37991 ft 436 kts 244°
2026-05-07 20:35 49.07982 -53.39319 37985 ft 437 kts 243°
2026-05-07 20:36 49.05377 -53.47701 37985 ft 437 kts 243°
2026-05-07 20:36 49.02765 -53.56078 37985 ft 437 kts 243°
2026-05-07 20:37 49.00164 -53.64394 37978 ft 437 kts 243°
2026-05-07 20:37 48.97541 -53.72746 37982 ft 437 kts 244°
2026-05-07 20:38 48.94916 -53.81084 37981 ft 437 kts 244°
2026-05-07 20:38 48.92282 -53.89420 37979 ft 437 kts 244°
2026-05-07 20:39 48.89642 -53.97745 37980 ft 436 kts 243°
2026-05-07 20:39 48.87009 -54.06023 37981 ft 435 kts 243°
2026-05-07 20:40 48.84374 -54.14279 37979 ft 433 kts 243°
2026-05-07 20:40 48.81742 -54.22499 37984 ft 433 kts 243°
2026-05-07 20:41 48.79121 -54.30658 37979 ft 433 kts 243°
2026-05-07 20:41 48.76475 -54.38867 37951 ft 433 kts 243°
2026-05-07 20:42 48.73826 -54.47061 37948 ft 431 kts 243°
2026-05-07 20:42 48.71187 -54.55197 37946 ft 429 kts 243°
2026-05-07 20:43 48.68550 -54.63298 37951 ft 429 kts 243°
2026-05-07 20:43 48.65907 -54.71394 37949 ft 429 kts 243°
2026-05-07 20:44 48.63258 -54.79482 37953 ft 429 kts 243°
2026-05-07 20:44 48.60626 -54.87493 37947 ft 427 kts 243°
2026-05-07 20:45 48.57985 -54.95507 37966 ft 425 kts 242°
2026-05-07 20:45 48.55342 -55.03503 37918 ft 426 kts 242°
2026-05-07 20:46 48.52693 -55.11488 37922 ft 426 kts 242°
2026-05-07 20:46 48.50036 -55.19475 37910 ft 426 kts 242°
2026-05-07 20:47 48.47376 -55.27441 37928 ft 424 kts 243°
2026-05-07 20:47 48.44722 -55.35371 37888 ft 423 kts 243°
2026-05-07 20:48 48.42084 -55.43228 37904 ft 423 kts 242°
2026-05-07 20:48 48.39419 -55.51140 37898 ft 423 kts 242°
2026-05-07 20:49 48.36750 -55.59036 37875 ft 423 kts 242°
2026-05-07 20:49 48.34085 -55.66900 37893 ft 421 kts 242°
2026-05-07 20:50 48.31422 -55.74732 37883 ft 420 kts 242°
2026-05-07 20:50 48.28757 -55.82549 37862 ft 420 kts 242°
2026-05-07 20:51 48.26086 -55.90356 37855 ft 420 kts 242°
2026-05-07 20:51 48.23412 -55.98156 37873 ft 420 kts 242°
2026-05-07 20:52 48.20734 -56.05938 37859 ft 420 kts 242°
2026-05-07 20:52 48.18504 -56.12396 37850 ft 420 kts 242°
2026-05-07 20:53 48.15378 -56.21426 37842 ft 420 kts 242°
2026-05-07 20:53 48.13125 -56.27915 37840 ft 419 kts 242°
2026-05-07 20:54 48.10427 -56.35666 37822 ft 419 kts 242°
2026-05-07 20:54 48.07732 -56.43387 37830 ft 418 kts 242°
2026-05-07 20:55 48.05053 -56.51039 37836 ft 418 kts 242°
2026-05-07 20:55 48.02357 -56.58717 37829 ft 417 kts 242°
2026-05-07 20:56 47.99655 -56.66389 37836 ft 417 kts 242°
2026-05-07 20:56 47.96950 -56.74045 37836 ft 417 kts 242°
2026-05-07 20:57 47.94246 -56.81677 37846 ft 415 kts 242°
2026-05-07 20:57 47.91546 -56.89277 37911 ft 414 kts 241°
2026-05-07 20:58 47.88844 -56.96858 37861 ft 414 kts 241°
2026-05-07 20:58 47.86154 -57.04383 37860 ft 414 kts 241°
2026-05-07 20:59 47.83444 -57.11943 37870 ft 413 kts 242°
2026-05-07 20:59 47.80741 -57.19466 37873 ft 412 kts 241°
2026-05-07 21:00 47.78036 -57.26969 37873 ft 411 kts 241°
2026-05-07 21:00 47.75327 -57.34460 37877 ft 411 kts 241°
2026-05-07 21:01 47.72616 -57.41935 37878 ft 411 kts 241°
2026-05-07 21:01 47.69902 -57.49403 37874 ft 410 kts 242°
2026-05-07 21:02 47.67191 -57.56841 37878 ft 409 kts 241°
2026-05-07 21:02 47.64477 -57.64264 37873 ft 409 kts 241°
2026-05-07 21:03 47.61762 -57.71670 37875 ft 409 kts 241°
2026-05-07 21:03 47.59036 -57.79084 37873 ft 409 kts 241°
2026-05-07 21:04 47.56328 -57.86434 37873 ft 409 kts 240°
2026-05-07 21:04 47.53594 -57.93831 37870 ft 410 kts 240°
2026-05-07 21:05 47.50835 -58.01270 37858 ft 410 kts 240°
2026-05-07 21:05 47.48090 -58.08653 37856 ft 409 kts 240°
2026-05-07 21:06 47.45342 -58.16026 37851 ft 409 kts 240°
2026-05-07 21:06 47.42599 -58.23363 37848 ft 404 kts 240°
2026-05-07 21:07 47.39892 -58.30586 37849 ft 401 kts 240°
2026-05-07 21:07 47.37185 -58.37788 37839 ft 401 kts 240°
2026-05-07 21:08 47.34469 -58.44994 37830 ft 401 kts 240°
2026-05-07 21:08 47.31772 -58.52132 37828 ft 401 kts 240°
2026-05-07 21:09 47.29065 -58.59277 37817 ft 395 kts 240°
2026-05-07 21:09 47.26400 -58.66290 37819 ft 392 kts 240°
2026-05-07 21:10 47.23736 -58.73285 37848 ft 392 kts 240°
2026-05-07 21:10 47.21055 -58.80305 37795 ft 395 kts 240°
2026-05-07 21:11 47.18355 -58.87353 37780 ft 396 kts 240°
2026-05-07 21:11 47.14290 -58.97935 37771 ft 396 kts 240°
2026-05-07 21:12 47.11573 -59.04987 37792 ft 396 kts 240°
2026-05-07 21:12 47.08852 -59.12028 37758 ft 396 kts 240°
2026-05-07 21:13 47.06129 -59.19058 37754 ft 396 kts 240°
2026-05-07 21:13 47.03400 -59.26082 37742 ft 396 kts 240°
2026-05-07 21:14 47.00690 -59.33040 37749 ft 395 kts 240°
2026-05-07 21:14 46.97964 -59.40023 37747 ft 395 kts 240°
2026-05-07 21:15 46.95232 -59.47002 37736 ft 395 kts 240°
2026-05-07 21:15 46.92500 -59.53964 37727 ft 395 kts 240°
2026-05-07 21:16 46.89762 -59.60923 37727 ft 395 kts 240°
2026-05-07 21:16 46.87020 -59.67874 37723 ft 395 kts 240°
2026-05-07 21:17 46.84272 -59.74823 37721 ft 395 kts 240°
2026-05-07 21:17 46.81520 -59.81764 37703 ft 395 kts 240°
2026-05-07 21:18 46.78766 -59.88693 37697 ft 395 kts 240°
2026-05-07 21:18 46.76024 -59.95573 37699 ft 395 kts 240°
2026-05-07 21:19 46.73239 -60.02543 37695 ft 396 kts 240°
2026-05-07 21:19 46.70483 -60.09424 37696 ft 396 kts 240°
2026-05-07 21:20 46.67700 -60.16348 37688 ft 395 kts 239°
2026-05-07 21:20 46.64920 -60.23249 37695 ft 395 kts 239°
2026-05-07 21:21 46.62138 -60.30151 37693 ft 394 kts 240°
2026-05-07 21:21 46.59371 -60.36992 37702 ft 392 kts 240°
2026-05-07 21:22 46.56600 -60.43823 37705 ft 392 kts 239°
2026-05-07 21:22 46.53825 -60.50650 37686 ft 392 kts 239°
2026-05-07 21:23 46.51042 -60.57479 37684 ft 393 kts 239°
2026-05-07 21:23 46.48271 -60.64261 37678 ft 392 kts 239°
2026-05-07 21:24 46.45486 -60.71059 37685 ft 391 kts 239°
2026-05-07 21:24 46.42703 -60.77837 37672 ft 391 kts 239°
2026-05-07 21:25 46.39916 -60.84607 37657 ft 391 kts 239°
2026-05-07 21:25 46.37143 -60.91327 37665 ft 391 kts 239°
2026-05-07 21:26 46.34354 -60.98070 37666 ft 388 kts 239°
2026-05-07 21:26 46.31584 -61.04749 37644 ft 386 kts 239°
2026-05-07 21:27 46.28809 -61.11424 37671 ft 387 kts 239°
2026-05-07 21:27 46.26035 -61.18083 37634 ft 387 kts 239°
2026-05-07 21:28 46.23257 -61.24733 37638 ft 386 kts 239°
2026-05-07 21:28 46.20480 -61.31365 37648 ft 384 kts 239°
2026-05-07 21:29 46.17711 -61.37964 37661 ft 385 kts 239°
2026-05-07 21:29 46.14908 -61.44628 37654 ft 389 kts 239°
2026-05-07 21:30 46.12106 -61.51271 37658 ft 389 kts 239°
2026-05-07 21:30 46.09292 -61.57930 37658 ft 389 kts 239°
2026-05-07 21:31 46.06480 -61.64568 37661 ft 385 kts 239°
2026-05-07 21:31 46.03691 -61.71134 37665 ft 383 kts 239°
2026-05-07 21:32 46.00902 -61.77684 37665 ft 383 kts 239°
2026-05-07 21:32 45.98133 -61.84174 37666 ft 383 kts 239°
2026-05-07 21:33 45.95340 -61.90703 37667 ft 383 kts 239°
2026-05-07 21:33 45.92544 -61.97226 37665 ft 378 kts 239°
2026-05-07 21:34 45.89801 -62.03607 37667 ft 377 kts 239°
2026-05-07 21:34 45.87042 -62.10013 37668 ft 377 kts 239°
2026-05-07 21:35 45.84282 -62.16409 37663 ft 377 kts 239°
2026-05-07 21:35 45.81985 -62.21723 37670 ft 380 kts 239°
2026-05-07 21:36 45.79184 -62.28184 37660 ft 379 kts 239°
2026-05-07 21:36 45.76402 -62.34583 37669 ft 377 kts 239°
2026-05-07 21:37 45.73622 -62.40967 37669 ft 377 kts 239°
2026-05-07 21:37 45.70862 -62.47291 37668 ft 377 kts 239°
2026-05-07 21:38 45.68079 -62.53652 37672 ft 377 kts 239°
2026-05-07 21:38 45.65307 -62.59972 37670 ft 371 kts 239°
2026-05-07 21:39 45.62574 -62.66191 37673 ft 368 kts 239°
2026-05-07 21:39 45.59850 -62.72380 37671 ft 368 kts 239°
2026-05-07 21:40 45.57121 -62.78563 37673 ft 368 kts 239°
2026-05-07 21:40 45.54391 -62.84735 37673 ft 367 kts 239°
2026-05-07 21:41 45.51662 -62.90891 37672 ft 367 kts 239°
2026-05-07 21:41 45.48946 -62.97003 37677 ft 367 kts 239°
2026-05-07 21:42 45.46198 -63.03180 37673 ft 373 kts 239°
2026-05-07 21:42 45.43394 -63.09465 37679 ft 376 kts 239°
2026-05-07 21:43 45.40582 -63.15749 37698 ft 376 kts 239°
2026-05-07 21:43 45.37781 -63.21996 37683 ft 371 kts 239°
2026-05-07 21:44 45.35012 -63.28161 37687 ft 368 kts 239°
2026-05-07 21:44 45.32254 -63.34291 37686 ft 368 kts 239°
2026-05-07 21:45 45.29491 -63.40416 37690 ft 368 kts 239°
2026-05-07 21:45 45.26749 -63.46481 37694 ft 368 kts 239°
2026-05-07 21:46 45.23992 -63.52565 37697 ft 364 kts 239°
2026-05-07 21:46 45.21257 -63.58588 37698 ft 362 kts 239°
2026-05-07 21:47 45.18528 -63.64588 37698 ft 362 kts 238°
2026-05-07 21:47 45.15796 -63.70581 37698 ft 362 kts 238°
2026-05-07 21:48 45.13060 -63.76568 37701 ft 361 kts 238°
2026-05-07 21:48 45.10327 -63.82539 37691 ft 365 kts 238°
2026-05-07 21:49 45.07558 -63.88573 37687 ft 366 kts 238°
2026-05-07 21:49 45.04784 -63.94604 37701 ft 366 kts 238°
2026-05-07 21:50 45.02007 -64.00632 37700 ft 365 kts 238°
2026-05-07 21:50 44.99227 -64.06651 37697 ft 365 kts 238°
2026-05-07 21:51 44.96466 -64.12618 37692 ft 362 kts 238°
2026-05-07 21:51 44.93721 -64.18538 37687 ft 359 kts 238°
2026-05-07 21:52 44.90979 -64.24440 37693 ft 360 kts 238°
2026-05-07 21:52 44.88237 -64.30331 37690 ft 359 kts 238°
2026-05-07 21:53 44.85490 -64.36220 37692 ft 359 kts 238°
2026-05-07 21:53 44.82746 -64.42088 37687 ft 357 kts 238°
2026-05-07 21:54 44.80026 -64.47892 37691 ft 354 kts 238°
2026-05-07 21:54 44.77317 -64.53665 37689 ft 353 kts 238°
2026-05-07 21:55 44.74601 -64.59438 37688 ft 359 kts 237°
2026-05-07 21:55 44.71835 -64.65309 37690 ft 360 kts 237°
2026-05-07 21:56 44.69060 -64.71186 37696 ft 359 kts 237°
2026-05-07 21:56 44.66303 -64.77011 37705 ft 357 kts 237°
2026-05-07 21:57 44.63545 -64.82824 37706 ft 357 kts 237°
2026-05-07 21:57 44.60792 -64.88617 37710 ft 357 kts 237°
2026-05-07 21:58 44.58054 -64.94368 37706 ft 357 kts 237°
2026-05-07 21:58 44.55296 -65.00150 37709 ft 356 kts 237°
2026-05-07 21:59 44.52558 -65.05877 37722 ft 353 kts 237°
2026-05-07 21:59 44.49825 -65.11584 37728 ft 352 kts 237°
2026-05-07 22:00 44.47091 -65.17281 37731 ft 352 kts 237°
2026-05-07 22:00 44.44356 -65.22970 37731 ft 352 kts 237°
2026-05-07 22:01 44.41620 -65.28649 37727 ft 351 kts 237°
2026-05-07 22:01 44.38879 -65.34326 37736 ft 355 kts 237°
2026-05-07 22:02 44.36109 -65.40054 37736 ft 356 kts 237°
2026-05-07 22:02 44.33346 -65.45752 37738 ft 356 kts 237°
2026-05-07 22:03 44.30562 -65.51485 37738 ft 356 kts 237°
2026-05-07 22:03 44.27776 -65.57211 37731 ft 356 kts 237°
2026-05-07 22:04 44.24994 -65.62918 37743 ft 355 kts 237°
2026-05-07 22:04 44.22211 -65.68614 37744 ft 355 kts 237°
2026-05-07 22:05 44.19426 -65.74305 37744 ft 355 kts 237°
2026-05-07 22:05 44.16660 -65.79945 37746 ft 355 kts 237°
2026-05-07 22:06 44.13871 -65.85622 37746 ft 355 kts 237°
2026-05-07 22:06 44.11077 -65.91296 37748 ft 355 kts 237°
2026-05-07 22:07 44.08284 -65.96958 37748 ft 355 kts 237°
2026-05-07 22:07 44.05485 -66.02622 37785 ft 355 kts 236°
2026-05-07 22:08 44.02667 -66.08311 37751 ft 359 kts 236°
2026-05-07 22:08 43.99830 -66.14031 37739 ft 359 kts 236°
2026-05-07 22:09 43.97216 -66.19288 37749 ft 357 kts 236°
2026-05-07 22:09 43.94393 -66.24956 37751 ft 357 kts 236°
2026-05-07 22:10 43.91562 -66.30630 37749 ft 357 kts 236°
2026-05-07 22:10 43.88738 -66.36277 37753 ft 356 kts 236°
2026-05-07 22:11 43.85908 -66.41927 37741 ft 356 kts 236°
2026-05-07 22:11 43.83091 -66.47538 37750 ft 353 kts 236°
2026-05-07 22:12 43.80305 -66.53079 37752 ft 353 kts 236°
2026-05-07 22:12 43.77499 -66.58649 37755 ft 353 kts 236°
2026-05-07 22:13 43.74687 -66.64220 37758 ft 353 kts 236°
2026-05-07 22:13 43.71871 -66.69786 37756 ft 352 kts 236°
2026-05-07 22:14 43.69071 -66.75313 37779 ft 350 kts 236°
2026-05-07 22:14 43.66253 -66.80865 37759 ft 355 kts 236°
2026-05-07 22:15 43.63408 -66.86459 37762 ft 356 kts 236°
2026-05-07 22:15 43.60578 -66.92012 37766 ft 356 kts 236°
2026-05-07 22:16 43.57731 -66.97597 37747 ft 355 kts 236°
2026-05-07 22:16 43.55519 -67.03636 37764 ft 353 kts 245°
2026-05-07 22:17 43.53729 -67.09949 37766 ft 353 kts 246°
2026-05-07 22:17 43.51953 -67.16279 37766 ft 353 kts 246°
2026-05-07 22:18 43.49293 -67.25749 37764 ft 353 kts 246°
2026-05-07 22:19 43.47516 -67.32058 37767 ft 353 kts 246°
2026-05-07 22:19 43.45746 -67.38330 37770 ft 353 kts 245°
2026-05-07 22:20 43.43966 -67.44617 37769 ft 352 kts 245°
2026-05-07 22:20 43.42183 -67.50901 37753 ft 352 kts 245°
2026-05-07 22:21 43.40397 -67.57177 37773 ft 352 kts 245°
2026-05-07 22:21 43.38606 -67.63459 37769 ft 352 kts 245°
2026-05-07 22:22 43.36822 -67.69698 37775 ft 352 kts 245°
2026-05-07 22:22 43.35027 -67.75962 37763 ft 352 kts 245°
2026-05-07 22:23 43.33527 -67.81183 37771 ft 350 kts 245°
2026-05-07 22:23 43.31729 -67.87424 37771 ft 354 kts 245°
2026-05-07 22:24 43.29909 -67.93729 37772 ft 356 kts 245°
2026-05-07 22:24 43.28092 -68.00008 37776 ft 356 kts 245°
2026-05-07 22:25 43.26259 -68.06328 37774 ft 356 kts 245°
2026-05-07 22:25 43.24424 -68.12637 37737 ft 356 kts 245°
2026-05-07 22:26 43.22595 -68.18914 37773 ft 353 kts 245°
2026-05-07 22:26 43.20767 -68.25166 37771 ft 353 kts 245°
2026-05-07 22:27 43.18938 -68.31409 37774 ft 353 kts 245°
2026-05-07 22:27 43.17102 -68.37659 37779 ft 356 kts 245°
2026-05-07 22:28 43.15237 -68.43991 37776 ft 359 kts 245°
2026-05-07 22:28 43.13377 -68.50293 37776 ft 359 kts 245°
2026-05-07 22:29 43.11505 -68.56623 37794 ft 357 kts 245°
2026-05-07 22:29 43.09638 -68.62920 37777 ft 356 kts 245°
2026-05-07 22:30 43.07772 -68.69194 37615 ft 354 kts 245°
2026-05-07 22:30 43.06848 -68.72299 37359 ft 351 kts 245°
2026-05-07 22:30 43.05928 -68.75384 37087 ft 350 kts 245°
2026-05-07 22:30 43.05006 -68.78469 36821 ft 350 kts 245°
2026-05-07 22:31 43.04083 -68.81553 36586 ft 350 kts 245°
2026-05-07 22:31 43.03164 -68.84625 36086 ft 349 kts 245°
2026-05-07 22:31 43.02246 -68.87688 35435 ft 348 kts 244°
2026-05-07 22:31 43.01329 -68.90745 34758 ft 347 kts 245°
2026-05-07 22:32 43.00426 -68.93753 34066 ft 345 kts 245°
2026-05-07 22:32 42.99515 -68.96784 33344 ft 344 kts 245°
2026-05-07 22:32 42.98606 -68.99803 32620 ft 343 kts 245°
2026-05-07 22:32 42.97701 -69.02805 31916 ft 341 kts 245°
2026-05-07 22:33 42.96797 -69.05799 31207 ft 340 kts 244°
2026-05-07 22:33 42.95896 -69.08780 30496 ft 340 kts 244°
2026-05-07 22:33 42.94992 -69.11767 29753 ft 340 kts 244°
2026-05-07 22:33 42.94089 -69.14748 28953 ft 339 kts 244°
2026-05-07 22:34 42.93186 -69.17722 28179 ft 338 kts 245°
2026-05-07 22:34 42.92302 -69.20634 27680 ft 336 kts 245°
2026-05-07 22:34 42.91405 -69.23585 27169 ft 337 kts 245°
2026-05-07 22:34 42.90508 -69.26533 26629 ft 336 kts 245°
2026-05-07 22:35 42.89611 -69.29477 26096 ft 335 kts 245°
2026-05-07 22:35 42.88719 -69.32403 25573 ft 333 kts 245°
2026-05-07 22:35 42.87829 -69.35317 25060 ft 332 kts 245°
2026-05-07 22:35 42.86942 -69.38219 24541 ft 331 kts 245°
2026-05-07 22:36 42.86057 -69.41113 24037 ft 330 kts 246°
2026-05-07 22:36 42.85174 -69.43996 23507 ft 329 kts 246°
2026-05-07 22:36 42.84290 -69.46879 22936 ft 329 kts 246°
2026-05-07 22:36 42.83410 -69.49747 22396 ft 328 kts 246°
2026-05-07 22:37 42.82529 -69.52616 21896 ft 328 kts 246°
2026-05-07 22:37 42.81646 -69.55489 21380 ft 329 kts 246°
2026-05-07 22:37 42.80761 -69.58359 20853 ft 329 kts 246°
2026-05-07 22:37 42.79876 -69.61231 20295 ft 328 kts 246°
2026-05-07 22:38 42.78993 -69.64091 19773 ft 328 kts 246°
2026-05-07 22:38 42.78110 -69.66951 19236 ft 327 kts 246°
2026-05-07 22:38 42.77228 -69.69801 18673 ft 326 kts 246°
2026-05-07 22:38 42.76345 -69.72650 18151 ft 327 kts 246°
2026-05-07 22:39 42.75460 -69.75505 17545 ft 327 kts 246°
2026-05-07 22:39 42.74575 -69.78354 16978 ft 325 kts 246°
2026-05-07 22:39 42.73698 -69.81179 16418 ft 323 kts 247°
2026-05-07 22:39 42.72823 -69.83989 15872 ft 321 kts 247°
2026-05-07 22:40 42.71955 -69.86778 15341 ft 320 kts 247°
2026-05-07 22:40 42.71100 -69.89519 14758 ft 318 kts 248°
2026-05-07 22:40 42.70236 -69.92286 14205 ft 317 kts 248°
2026-05-07 22:40 42.69376 -69.95042 13768 ft 317 kts 248°
2026-05-07 22:41 42.68515 -69.97796 13262 ft 316 kts 248°
2026-05-07 22:41 42.67655 -70.00542 12673 ft 316 kts 249°
2026-05-07 22:41 42.66798 -70.03278 12257 ft 311 kts 249°
2026-05-07 22:41 42.65973 -70.05906 12131 ft 293 kts 249°
2026-05-07 22:42 42.65193 -70.08386 12007 ft 277 kts 249°
2026-05-07 22:42 42.64439 -70.10729 11892 ft 263 kts 248°
2026-05-07 22:42 42.63683 -70.12912 11776 ft 249 kts 247°
2026-05-07 22:42 42.62958 -70.14985 11665 ft 237 kts 248°
2026-05-07 22:43 42.62268 -70.16969 11541 ft 227 kts 248°
2026-05-07 22:43 42.61598 -70.18910 11415 ft 229 kts 248°
2026-05-07 22:43 42.60916 -70.20844 11311 ft 231 kts 246°
2026-05-07 22:43 42.59978 -70.22646 11165 ft 238 kts 232°
2026-05-07 22:44 42.58615 -70.23985 10944 ft 248 kts 214°
2026-05-07 22:44 42.57008 -70.24924 10575 ft 253 kts 210°
2026-05-07 22:44 42.55361 -70.25783 10174 ft 254 kts 209°
2026-05-07 22:44 42.53700 -70.26654 9776 ft 260 kts 209°
2026-05-07 22:45 42.51959 -70.27590 9497 ft 275 kts 209°
2026-05-07 22:45 42.50177 -70.28567 9195 ft 274 kts 211°
2026-05-07 22:45 42.48623 -70.29956 8636 ft 263 kts 231°
2026-05-07 22:45 42.47661 -70.31992 8259 ft 254 kts 253°
2026-05-07 22:46 42.47169 -70.34333 7895 ft 263 kts 259°
2026-05-07 22:46 42.46768 -70.36764 7542 ft 265 kts 259°
2026-05-07 22:46 42.46366 -70.39213 7276 ft 266 kts 259°
2026-05-07 22:47 42.45590 -70.43831 7036 ft 267 kts 259°
2026-05-07 22:47 42.45170 -70.46291 6913 ft 267 kts 259°
2026-05-07 22:47 42.44750 -70.48743 6631 ft 267 kts 259°
2026-05-07 22:47 42.44331 -70.51184 6226 ft 266 kts 258°
2026-05-07 22:48 42.43911 -70.53632 6021 ft 267 kts 259°
2026-05-07 22:48 42.43504 -70.56010 6000 ft 252 kts 258°
2026-05-07 22:48 42.43106 -70.58293 5998 ft 248 kts 258°
2026-05-07 22:48 42.42712 -70.60558 5982 ft 247 kts 258°
2026-05-07 22:49 42.42324 -70.62794 5826 ft 246 kts 258°
2026-05-07 22:49 42.41932 -70.65049 5356 ft 247 kts 258°
2026-05-07 22:49 42.41538 -70.67316 4835 ft 245 kts 258°
2026-05-07 22:49 42.41155 -70.69521 4320 ft 236 kts 259°
2026-05-07 22:50 42.40792 -70.71636 3908 ft 226 kts 260°
2026-05-07 22:50 42.40461 -70.73674 3517 ft 216 kts 259°
2026-05-07 22:50 42.40122 -70.75608 3296 ft 207 kts 259°
2026-05-07 22:50 42.39789 -70.77469 3023 ft 201 kts 259°
2026-05-07 22:51 42.39466 -70.79279 2831 ft 193 kts 259°
2026-05-07 22:51 42.39163 -70.80995 2675 ft 182 kts 259°
2026-05-07 22:51 42.38878 -70.82617 2488 ft 173 kts 258°
2026-05-07 22:51 42.38604 -70.84178 2238 ft 167 kts 258°
2026-05-07 22:52 42.38337 -70.85681 2017 ft 162 kts 259°
2026-05-07 22:52 42.38079 -70.87144 1794 ft 156 kts 258°
2026-05-07 22:52 42.37837 -70.88512 1580 ft 142 kts 259°
2026-05-07 22:52 42.37613 -70.89772 1409 ft 136 kts 261°
2026-05-07 22:53 42.37395 -70.91013 1215 ft 136 kts 260°
2026-05-07 22:53 42.37175 -70.92253 1027 ft 135 kts 260°
2026-05-07 22:53 42.36958 -70.93488 851 ft 135 kts 260°
2026-05-07 22:53 42.36742 -70.94708 665 ft 133 kts 259°
2026-05-07 22:54 42.36523 -70.95946 484 ft 138 kts 261°
2026-05-07 22:54 42.36295 -70.97206 303 ft 136 kts 261°
2026-05-07 22:54 42.36070 -70.98437 109 ft 134 kts 261°
2026-05-07 22:54 42.35869 -70.99657 31 ft 124 kts 257°
2026-05-07 22:55 42.35721 -71.00482 31 ft 38 kts 256°
2026-05-07 22:55 42.35673 -71.00750 31 ft 28 kts 256°
2026-05-07 22:55 42.35634 -71.01002 31 ft 26 kts 268°
2026-05-07 22:55 42.35651 -71.01120 31 ft 1 kts 290°
2026-05-07 22:56 42.35658 -71.01140 31 ft 3 kts 299°
2026-05-07 22:56 42.35674 -71.01175 31 ft 5 kts 302°
2026-05-07 22:56 42.35707 -71.01238 31 ft 9 kts 307°
2026-05-07 22:56 42.35730 -71.01283 31 ft 0 kts 300°
2026-05-07 22:57 42.35736 -71.01298 31 ft 3 kts 300°
2026-05-07 22:57 42.35747 -71.01332 31 ft 5 kts 290°
2026-05-07 22:57 42.35766 -71.01400 31 ft 13 kts 290°
2026-05-07 22:57 42.35802 -71.01527 31 ft 14 kts 301°
2026-05-07 22:58 42.35893 -71.01556 31 ft 15 kts
2026-05-07 22:58 42.35989 -71.01500 31 ft 16 kts 24°
2026-05-07 22:58 42.36101 -71.01443 31 ft 18 kts 18°
2026-05-07 22:58 42.36228 -71.01388 31 ft 20 kts 18°
2026-05-07 22:59 42.36364 -71.01320 31 ft 22 kts 19°
2026-05-07 22:59 42.36512 -71.01250 31 ft 23 kts 19°
2026-05-07 22:59 42.36660 -71.01178 31 ft 22 kts 20°
2026-05-07 22:59 42.36807 -71.01176 31 ft 22 kts 323°
2026-05-07 23:00 42.36923 -71.01322 31 ft 24 kts 316°
2026-05-07 23:00 42.37042 -71.01483 31 ft 25 kts 314°
2026-05-07 23:00 42.37166 -71.01652 31 ft 26 kts 315°
2026-05-07 23:00 42.37272 -71.01794 31 ft 3 kts 313°
2026-05-07 23:01 42.37287 -71.01838 31 ft 7 kts 278°
2026-05-07 23:01 42.37266 -71.01904 31 ft 8 kts 231°
2026-05-07 23:01 42.37235 -71.01984 31 ft 11 kts 257°
2026-05-07 23:01 42.37234 -71.02035 29 ft 1 kts 275°
2026-05-07 23:02 42.37236 -71.02059 24 ft 4 kts 274°
2026-05-07 23:02 42.37225 -71.02088 31 ft 4 kts 224°
2026-05-07 23:02 42.37202 -71.02090 31 ft 4 kts 175°
2026-05-07 23:02 42.37168 -71.02089 31 ft 0 kts 177°
2026-05-07 23:03 42.37154 -71.02088 31 ft 0 kts 177°
2026-05-07 23:03 42.37145 -71.02087 31 ft 0 kts 177°